TimeCDT,TemperatureF,Dew PointF,Humidity,Sea Level PressureIn,VisibilityMPH,Wind Direction,Wind SpeedMPH,Gust SpeedMPH,PrecipitationIn,Events,Conditions,WindDirDegrees,DateUTC
12:53 AM,68.0,46.9,47,29.83,10.0,South,11.5,-,N/A,,Clear,170,2013-05-01 05:53:00
1:53 AM,64.9,48.0,54,29.84,10.0,SSE,8.1,-,N/A,,Clear,150,2013-05-01 06:53:00
2:53 AM,63.0,48.0,58,29.86,10.0,SSE,6.9,-,N/A,,Clear,150,2013-05-01 07:53:00
3:53 AM,63.0,48.0,58,29.88,10.0,SSE,6.9,-,N/A,,Clear,150,2013-05-01 08:53:00
4:53 AM,62.1,48.9,62,29.90,10.0,SSE,5.8,-,N/A,,Scattered Clouds,150,2013-05-01 09:53:00
5:53 AM,62.1,48.0,60,29.92,10.0,SE,6.9,-,N/A,,Scattered Clouds,140,2013-05-01 10:53:00
6:53 AM,62.1,48.9,62,29.94,10.0,SSE,6.9,-,N/A,,Mostly Cloudy,150,2013-05-01 11:53:00
7:53 AM,64.0,50.0,60,29.96,10.0,SSE,8.1,-,N/A,,Mostly Cloudy,160,2013-05-01 12:53:00
8:53 AM,66.9,52.0,59,29.96,10.0,SSE,10.4,-,N/A,,Partly Cloudy,160,2013-05-01 13:53:00
9:53 AM,71.1,55.9,59,29.97,10.0,South,9.2,-,N/A,,Clear,180,2013-05-01 14:53:00
11:53 AM,77.0,59.0,54,29.99,10.0,South,6.9,-,N/A,,Partly Cloudy,170,2013-05-01 16:53:00
12:53 PM,77.0,57.9,52,29.98,10.0,SE,9.2,-,N/A,,Scattered Clouds,140,2013-05-01 17:53:00
1:53 PM,79.0,57.0,47,29.97,10.0,SSE,11.5,19.6,N/A,,Scattered Clouds,160,2013-05-01 18:53:00
2:53 PM,81.0,57.0,44,29.96,10.0,South,11.5,17.3,N/A,,Partly Cloudy,170,2013-05-01 19:53:00
3:53 PM,79.0,55.0,44,29.97,10.0,SSE,9.2,-,N/A,,Mostly Cloudy,160,2013-05-01 20:53:00
4:53 PM,81.0,57.9,45,29.96,10.0,SSE,8.1,-,N/A,,Partly Cloudy,160,2013-05-01 21:53:00
5:53 PM,77.0,55.9,48,29.97,10.0,North,12.7,17.3,N/A,,Partly Cloudy,360,2013-05-01 22:53:00
6:13 PM,69.8,53.6,56,30.00,10.0,North,18.4,-,N/A,,Mostly Cloudy,350,2013-05-01 23:13:00
6:53 PM,68.0,51.1,55,30.01,10.0,North,24.2,29.9,N/A,,Overcast,360,2013-05-01 23:53:00
7:53 PM,62.1,46.9,58,30.05,10.0,North,25.3,29.9,N/A,,Mostly Cloudy,10,2013-05-02 00:53:00
8:53 PM,55.9,43.0,62,30.09,10.0,North,20.7,31.1,N/A,,Partly Cloudy,360,2013-05-02 01:53:00
9:53 PM,50.0,39.9,68,30.14,10.0,NNW,18.4,31.1,N/A,,Mostly Cloudy,340,2013-05-02 02:53:00
10:53 PM,48.0,39.0,71,30.15,10.0,North,17.3,25.3,N/A,,Overcast,360,2013-05-02 03:53:00
11:19 PM,46.4,37.4,71,30.17,10.0,North,18.4,29.9,N/A,,Overcast,10,2013-05-02 04:19:00
11:53 PM,45.0,37.0,74,30.17,10.0,North,16.1,24.2,N/A,,Mostly Cloudy,360,2013-05-02 04:53:00